Weather History for Livingston, MT

Change the Weather History Date:

Thursday, January 3, 2013

  Actual Average Record
Temperature  
Mean Temperature 27 °F 26 °F  
Max Temperature 36 °F 36 °F 51 °F (1981)
Min Temperature 18 °F 17 °F -24 °F (1959)
Degree Days  
Heating Degree Days 38 39  
Month to date heating degree days 117  
Since 1 July heating degree days 3282  
Moisture  
Dew Point 4 °F    
Average Humidity 38    
Maximum Humidity 52    
Minimum Humidity 28    
Precipitation  
Precipitation 0.00 in 0.02 in 0.19 in (1997)
Month to date precipitation 0.05  
Year to date precipitation 0.05  
Sea Level Pressure  
Sea Level Pressure 30.31 in    
Wind  
Wind Speed 24 mph (West)    
Max Wind Speed 30 mph    
Max Gust Speed 41 mph    
Visibility 10 miles    
Events      
T = Trace of Precipitation, MM = Missing Value Source: NWS Daily Summary

Daily Weather History Graph

Daily Weather History Graph

Search for Another Location

Airport:

Trip Planner

Search our weather history database for the weather conditions in past years. The results will help you decide how hot, cold, wet, or windy it might be!

Date:

Astronomy

Jan. 03, 2013 Rise Set
Actual Time 8:02 AM MST 4:50 PM MST
Civil Twilight 7:28 AM MST 5:24 PM MST
Nautical Twilight 6:51 AM MST 6:02 PM MST
Astronomical Twilight 6:14 AM MST 6:38 PM MST
Moon 11:52 PM MST (1/3) 10:55 AM MST (1/3)
Length of Visible Light 9h 56m
Length of Day
8h 48m
Waning Gibbous, 65% of the Moon is Illuminated
Jan 3
Waning Gibbous
Jan 4
Last Quarter
Jan 11
New
Jan 18
First Quarter
Jan 26
Full

Hourly Weather History & Observations

Time (MST) Temp. Windchill Dew Point Humidity Pressure Visibility Wind Dir Wind Speed Gust Speed Precip Events Conditions
12:53 AM 19.9 °F 2.5 °F 3.0 °F 48% 30.42 in 10.0 mi West 25.3 mph 32.2 mph N/A   Clear
1:00 AM 21.2 °F 3.9 °F 3.2 °F 46% 30.25 in 10.0 mi West 26.5 mph 34.5 mph N/A   Clear
1:53 AM 18.0 °F 1.7 °F 3.0 °F 52% 30.42 in 10.0 mi WNW 19.6 mph - N/A   Clear
2:53 AM 21.9 °F 11.7 °F 1.9 °F 42% 30.39 in 10.0 mi WSW 9.2 mph 20.7 mph N/A   Clear
3:53 AM 19.9 °F 2.5 °F 1.9 °F 46% 30.40 in 10.0 mi West 25.3 mph 32.2 mph N/A   Clear
4:53 AM 19.0 °F 2.7 °F 1.9 °F 47% 30.40 in 10.0 mi West 20.7 mph - N/A   Clear
5:53 AM 23.0 °F 6.3 °F 1.9 °F 40% 30.36 in 10.0 mi WSW 26.5 mph 34.5 mph N/A   Clear
6:53 AM 23.0 °F 5.7 °F 1.0 °F 39% 30.36 in 10.0 mi West 28.8 mph 36.8 mph N/A   Clear
7:53 AM 19.9 °F 3.5 °F 1.9 °F 46% 30.38 in 10.0 mi WNW 21.9 mph - N/A   Clear
8:53 AM 24.1 °F 6.9 °F 1.9 °F 38% 30.37 in 10.0 mi WSW 29.9 mph 35.7 mph N/A   Clear
9:53 AM 28.0 °F 13.0 °F 1.9 °F 33% 30.35 in 10.0 mi West 26.5 mph 32.2 mph N/A   Clear
10:53 AM 30.0 °F 15.4 °F 3.0 °F 32% 30.34 in 10.0 mi West 27.6 mph 35.7 mph N/A   Clear
11:53 AM 34.0 °F 20.5 °F 3.9 °F 28% 30.31 in 10.0 mi West 28.8 mph 34.5 mph N/A   Clear
12:53 PM 33.1 °F 20.3 °F 5.0 °F 31% 30.28 in 10.0 mi West 24.2 mph 33.4 mph N/A   Clear
1:53 PM 34.0 °F 21.8 °F 5.0 °F 30% 30.28 in 10.0 mi West 23.0 mph - N/A   Clear
2:53 PM 34.0 °F 21.5 °F 6.1 °F 31% 30.27 in 10.0 mi West 24.2 mph - N/A   Clear
3:53 PM 34.0 °F 22.4 °F 5.0 °F 30% 30.27 in 10.0 mi West 20.7 mph - N/A   Clear
4:53 PM 30.0 °F 17.2 °F 6.1 °F 36% 30.29 in 10.0 mi WNW 20.7 mph - N/A   Clear
5:53 PM 32.0 °F 18.6 °F 6.1 °F 34% 30.27 in 10.0 mi West 25.3 mph 34.5 mph N/A   Clear
6:53 PM 30.0 °F 16.0 °F 6.1 °F 36% 30.27 in 10.0 mi West 25.3 mph 34.5 mph N/A   Clear
7:53 PM 36.0 °F 23.2 °F 7.0 °F 30% 30.25 in 10.0 mi WSW 28.8 mph 39.1 mph N/A   Clear
8:53 PM 35.1 °F 22.5 °F 7.0 °F 31% 30.22 in 10.0 mi West 26.5 mph 35.7 mph N/A   Clear
9:53 PM 34.0 °F 21.0 °F 8.1 °F 34% 30.20 in 10.0 mi West 26.5 mph 32.2 mph N/A   Clear
10:53 PM 26.1 °F - 9.0 °F 49% 30.21 in 10.0 mi Calm Calm - N/A   Clear
11:53 PM 35.1 °F 22.0 °F 9.0 °F 34% 30.15 in 10.0 mi West 28.8 mph 41.4 mph N/A   Clear